Location: Ústí nad Labem
(50.6611°N, 14.0531°E)
Time: 06:33:54
(UTC+02:00)

S-56A Canister/Altair - Pass Details

Date: 26 April 2024
Orbit: 638 x 2488 km, 38.9° (Epoch: 27 May)

Event Time Altitude Azimuth Distance (km) Brightness Sun altitude
Rises 21:45:12 0° 260° (W) 3,701 11.6 -12.6°
Reaches altitude 10° 21:49:13 10° 234° (SW) 3,083 10.8 -13.1°
Maximum altitude 21:52:38 14° 207° (SSW) 3,103 10.5 -13.4°
Drops below altitude 10° 21:56:37 10° 181° (S) 3,702 10.6 -13.9°
Enters shadow 21:58:38 - 172° (S) 4,153 10.8 -14.1°
